GW4136 Weather Reports


time (UTC)temp
F
wind
direction
speed
knots
gust
knots
rain 1hr
in
rain 24hr
in
rain mn
in
humidity
%
barometer
mb
20260508065105 51 3 0.0 0.9 0.00 0.00 0.00 82 1018.0
20260508064605 51 30 0.0 0.9 0.00 0.00 0.00 82 1018.0
20260508063605 51 326 0.0 0.9 0.00 0.00 0.00 82 1017.9
20260508062605 51 346 0.0 0.0 0.00 0.00 0.00 83 1017.9
20260508061105 50 352 0.0 0.9 0.00 0.00 0.00 84 1017.8
20260508060605 50 11 0.0 0.9 0.00 0.00 0.00 84 1017.8
20260508060105 49 15 0.0 0.0 0.00 0.00 0.00 84 1017.8
20260508055605 49 15 0.0 0.9 0.00 0.00 0.00 84 1017.8
20260508055105 49 15 0.0 0.0 0.00 0.00 0.00 85 1017.8
20260508054605 49 29 0.0 0.0 0.00 0.00 0.00 85 1017.7
20260508053606 49 44 0.0 0.0 0.00 0.00 0.00 85 1017.4
20260508053106 49 44 0.0 0.0 0.00 0.00 0.00 85 1017.4
20260508052605 49 319 0.0 0.0 0.00 0.00 0.00 85 1017.3
20260508051606 49 337 0.0 0.9 0.00 0.00 0.00 86 1017.3
20260508051106 49 321 0.0 0.9 0.00 0.00 0.00 85 1017.3
20260508050605 49 331 0.0 0.9 0.00 0.00 0.00 85 1017.4
20260508050106 48 332 0.0 0.9 0.00 0.00 0.00 85 1017.4
20260508045605 48 304 0.0 0.0 0.00 0.00 0.00 85 1017.5
20260508044605 48 304 0.0 0.0 0.00 0.00 0.00 84 1017.4
20260508044105 48 304 0.0 0.0 0.00 0.00 0.00 84 1017.4
20260508043605 48 304 0.0 0.0 0.00 0.00 0.00 84 1017.4
20260508042106 49 304 0.0 0.9 0.00 0.00 0.00 83 1017.3
20260508041605 49 48 0.0 0.0 0.00 0.00 0.00 82 1017.3
20260508041105 49 48 0.0 0.0 0.00 0.00 0.00 82 1017.2
20260508040606 49 48 0.0 0.0 0.00 0.00 0.00 82 1017.2
20260508040106 49 33 0.0 0.0 0.00 0.00 0.00 82 1017.2
20260508035604 49 30 0.0 0.9 0.00 0.00 0.00 82 1017.2
20260508035105 49 72 0.0 0.9 0.00 0.00 0.00 82 1017.1
20260508034605 49 76 0.0 0.9 0.00 0.00 0.00 81 1017.2
20260508033104 49 16 0.0 0.0 0.00 0.00 0.00 82 1017.1
20260508032106 49 356 0.0 0.0 0.00 0.00 0.00 82 1017.0
20260508031605 49 356 0.0 0.0 0.00 0.00 0.00 82 1017.1
20260508031106 49 351 0.0 0.0 0.00 0.00 0.00 82 1017.1
20260508030606 49 345 0.0 0.0 0.00 0.00 0.00 82 1017.2
20260508030106 49 346 0.0 0.0 0.00 0.00 0.00 82 1017.2
20260508025606 49 345 0.0 0.0 0.00 0.00 0.00 82 1017.3
20260508025106 50 12 0.0 0.0 0.00 0.00 0.00 82 1017.3
20260508024105 50 12 0.0 0.0 0.00 0.00 0.00 81 1017.2
20260508023606 50 12 0.0 0.0 0.00 0.00 0.00 81 1017.2
20260508023106 50 12 0.0 0.0 0.00 0.00 0.00 81 1017.2
20260508022606 50 65 0.0 0.9 0.00 0.00 0.00 81 1017.2
20260508022106 50 58 0.0 0.0 0.00 0.00 0.00 81 1017.1
20260508021606 50 92 0.0 0.9 0.00 0.00 0.00 81 1017.1
20260508021106 50 94 0.0 0.9 0.00 0.00 0.00 81 1017.1
20260508020606 50 22 0.0 0.9 0.00 0.00 0.00 81 1017.1
20260508020106 50 81 0.0 0.9 0.00 0.00 0.00 81 1017.1
20260508015606 50 72 0.0 0.9 0.00 0.00 0.00 82 1017.1
20260508015105 50 336 0.0 0.9 0.00 0.00 0.00 82 1017.1
20260508014606 50 92 0.0 0.9 0.00 0.00 0.00 83 1017.0
20260508014106 50 312 0.0 0.0 0.00 0.00 0.00 83 1017.0
20260508013606 50 8 0.0 0.9 0.00 0.00 0.00 84 1017.0
20260508013104 50 49 0.0 0.9 0.00 0.00 0.00 84 1017.0
20260508012606 50 36 0.0 0.9 0.00 0.00 0.00 84 1017.0
20260508012105 50 352 0.0 1.7 0.00 0.00 0.00 84 1017.1
20260508011605 50 8 0.0 0.9 0.00 0.00 0.00 85 1017.1
20260508010606 50 6 0.0 0.0 0.00 0.00 0.00 86 1017.1
20260508010106 50 110 0.0 0.9 0.00 0.00 0.00 86 1017.1
20260508005106 50 355 0.0 0.0 0.00 0.00 0.00 86 1017.2
20260508004606 50 355 0.0 0.0 0.00 0.00 0.00 86 1017.3
20260508004106 50 355 0.0 0.0 0.00 0.00 0.00 85 1017.2
20260508003106 51 356 0.0 0.0 0.00 0.00 0.00 85 1017.3
20260508002606 51 356 0.0 0.9 0.00 0.00 0.00 85 1017.3
20260508002106 51 51 0.0 0.9 0.00 0.00 0.00 85 1017.4
20260508001106 51 17 0.0 0.9 0.00 0.00 0.00 85 1017.4
20260508000106 51 16 0.0 0.0 0.00 0.00 0.00 85 1017.3
20260507235605 51 16 0.0 0.9 0.00 0.00 0.00 84 1017.4
20260507235106 51 34 0.0 0.0 0.00 0.00 0.00 84 1017.4
20260507234606 51 34 0.0 0.0 0.00 0.00 0.00 83 1017.4
20260507234106 51 34 0.0 0.0 0.00 0.00 0.00 82 1017.4
20260507233106 52 34 0.0 0.0 0.00 0.00 0.00 81 1017.4
20260507232612 52 34 0.0 0.0 0.00 0.00 0.00 80 1017.4
20260507232106 52 34 0.0 0.0 0.00 0.00 0.00 80 1017.4
20260507231607 52 34 0.0 0.0 0.00 0.00 0.00 80 1017.4
20260507231106 52 34 0.0 0.0 0.00 0.00 0.00 80 1017.4
20260507230605 52 34 0.0 0.0 0.00 0.00 0.00 79 1017.4
20260507230106 52 34 0.0 0.0 0.00 0.00 0.00 79 1017.4
20260507225606 52 34 0.0 0.0 0.00 0.00 0.00 79 1017.4
20260507225105 52 34 0.0 0.0 0.00 0.00 0.00 79 1017.4
20260507224105 52 34 0.0 0.0 0.00 0.00 0.00 79 1017.4
20260507223605 52 34 0.0 0.0 0.00 0.00 0.00 79 1017.4
20260507223104 52 34 0.0 0.0 0.00 0.00 0.00 78 1017.4
20260507222604 52 34 0.0 0.0 0.00 0.00 0.00 78 1017.4
20260507221105 52 34 0.0 0.0 0.00 0.00 0.00 78 1017.4
20260507220605 52 34 0.0 0.0 0.00 0.00 0.00 78 1017.5
20260507220105 52 34 0.0 0.0 0.00 0.00 0.00 77 1017.4
20260507215604 53 34 0.0 0.0 0.00 0.00 0.00 77 1017.5
20260507215104 53 34 0.0 0.0 0.00 0.00 0.00 77 1017.4
20260507214605 53 34 0.0 0.0 0.00 0.00 0.00 77 1017.5
20260507214104 53 34 0.0 0.0 0.00 0.00 0.00 77 1017.4
20260507213605 53 33 0.0 0.9 0.00 0.00 0.00 76 1017.5
20260507213104 53 83 0.0 0.0 0.00 0.00 0.00 76 1017.5
20260507212606 53 83 0.0 0.9 0.00 0.00 0.00 76 1017.4
20260507212105 53 75 0.0 0.9 0.00 0.00 0.00 76 1017.4
20260507211104 53 81 0.0 0.0 0.00 0.00 0.00 76 1017.3
20260507210105 53 81 0.0 0.0 0.00 0.00 0.00 76 1017.3
20260507205604 53 81 0.0 0.9 0.00 0.00 0.00 75 1017.3
20260507205104 53 90 0.0 1.7 0.00 0.00 0.00 75 1017.2
20260507204604 53 107 0.0 0.9 0.00 0.00 0.00 76 1017.2
20260507204104 53 343 0.0 0.9 0.00 0.00 0.00 76 1017.2
20260507203605 53 80 0.0 0.0 0.00 0.00 0.00 76 1017.2
20260507203105 53 37 0.0 0.0 0.00 0.00 0.00 76 1017.1
20260507202605 53 87 0.0 0.0 0.00 0.00 0.00 76 1017.1
20260507202104 53 91 0.0 0.0 0.00 0.00 0.00 76 1017.0
20260507201604 53 91 0.0 0.0 0.00 0.00 0.00 76 1017.0
20260507201104 54 110 0.0 0.0 0.00 0.00 0.00 76 1017.0
20260507200604 54 110 0.0 0.9 0.00 0.00 0.00 75 1017.0
20260507200104 54 131 0.0 0.0 0.00 0.00 0.00 75 1017.0
20260507195604 54 131 0.0 0.9 0.00 0.00 0.00 75 1016.9
20260507195104 54 143 0.0 0.9 0.00 0.00 0.00 74 1016.9
20260507194604 55 133 0.0 0.9 0.00 0.00 0.00 73 1016.8
20260507194104 55 179 0.0 0.9 0.00 0.00 0.00 72 1016.8
20260507193604 55 137 0.0 0.0 0.00 0.00 0.00 70 1016.8
20260507193105 55 128 0.0 1.7 0.00 0.00 0.00 69 1016.7
20260507192604 55 87 0.0 1.7 0.00 0.00 0.00 69 1016.7
20260507191604 55 123 0.0 1.7 0.00 0.00 0.00 68 1016.7
20260507191104 56 125 0.9 4.3 0.00 0.00 0.00 67 1016.7
20260507190603 56 84 0.9 2.6 0.00 0.00 0.00 67 1016.6
20260507190104 56 94 0.0 0.9 0.00 0.00 0.00 67 1016.6
20260507185604 56 92 0.9 2.6 0.00 0.00 0.00 66 1016.5
20260507184104 56 91 0.0 1.7 0.00 0.00 0.00 66 1016.5
20260507183604 56 92 0.9 2.6 0.00 0.00 0.00 65 1016.4
20260507182604 56 92 0.9 2.6 0.00 0.00 0.00 64 1016.3
20260507181604 57 64 0.9 2.6 0.00 0.00 0.00 64 1016.2
20260507181104 57 109 0.0 2.6 0.00 0.00 0.00 63 1016.2
20260507180604 57 94 0.9 2.6 0.00 0.00 0.00 63 1016.2
20260507180105 57 103 0.9 4.3 0.00 0.00 0.00 62 1016.2
20260507175104 57 98 0.0 1.7 0.00 0.00 0.00 61 1016.2
20260507174605 57 91 0.0 1.7 0.00 0.00 0.00 61 1016.3
20260507173105 58 88 0.0 2.6 0.00 0.00 0.00 60 1016.3
20260507172605 58 61 0.9 6.1 0.00 0.00 0.00 59 1016.3
20260507172105 58 109 0.0 2.6 0.00 0.00 0.00 58 1016.3
20260507171605 58 89 0.9 2.6 0.00 0.00 0.00 57 1016.3
20260507171104 58 82 0.9 2.6 0.00 0.00 0.00 58 1016.3
20260507170604 58 93 0.0 2.6 0.00 0.00 0.00 57 1016.3
20260507170104 58 95 0.9 2.6 0.00 0.00 0.00 56 1016.3
20260507165603 58 23 0.9 5.2 0.00 0.00 0.00 57 1016.3
20260507164104 59 95 1.7 5.2 0.00 0.00 0.00 55 1016.2
20260507163604 59 80 1.7 6.1 0.00 0.00 0.00 55 1016.2
20260507160604 60 62 0.0 2.6 0.00 0.00 0.00 56 1016.1
20260507160104 60 57 0.0 2.6 0.00 0.00 0.00 57 1016.2
20260507155604 59 30 0.9 2.6 0.00 0.00 0.00 56 1016.1
20260507155104 59 10 1.7 5.2 0.00 0.00 0.00 57 1016.2
20260507154605 59 90 0.0 1.7 0.00 0.00 0.00 57 1016.1
20260507154104 59 103 0.9 2.6 0.00 0.00 0.00 57 1016.2
20260507153604 59 67 0.0 1.7 0.00 0.00 0.00 56 1016.2
20260507153104 60 57 0.0 2.6 0.00 0.00 0.00 55 1016.2
20260507152605 60 88 0.0 2.6 0.00 0.00 0.00 55 1016.3
20260507152104 60 38 0.0 0.9 0.00 0.00 0.00 56 1016.2
20260507151604 60 335 0.0 0.9 0.00 0.00 0.00 55 1016.3
20260507150605 61 27 0.0 2.6 0.00 0.00 0.00 54 1016.3
20260507150105 61 333 0.0 2.6 0.00 0.00 0.00 53 1016.3
20260507145604 61 0 0.0 0.9 0.00 0.00 0.00 54 1016.3
20260507145103 61 17 0.0 0.9 0.00 0.00 0.00 53 1016.4
20260507144605 61 135 0.9 2.6 0.00 0.00 0.00 54 1016.4
20260507144104 61 91 0.9 4.3 0.00 0.00 0.00 53 1016.4
20260507143104 60 89 0.0 2.6 0.00 0.00 0.00 54 1016.4
20260507142605 60 70 0.0 1.7 0.00 0.00 0.00 54 1016.5
20260507142105 61 349 0.0 1.7 0.00 0.00 0.00 54 1016.6
20260507141605 61 75 0.0 2.6 0.00 0.00 0.00 53 1016.6
20260507141105 62 33 0.0 2.6 0.00 0.00 0.00 55 1016.6
20260507140106 61 330 0.0 1.7 0.00 0.00 0.00 55 1016.7
20260507135605 60 354 0.9 2.6 0.00 0.00 0.00 56 1016.8
20260507134605 60 70 0.0 4.3 0.00 0.00 0.00 55 1016.8
20260507134104 60 109 0.0 5.2 0.00 0.00 0.00 56 1016.8
20260507133604 60 111 0.9 5.2 0.00 0.00 0.00 58 1016.8
20260507133104 60 83 0.9 4.3 0.00 0.00 0.00 57 1016.8
20260507132605 60 52 0.0 2.6 0.00 0.00 0.00 57 1016.8
20260507132105 60 2 0.9 2.6 0.00 0.00 0.00 56 1016.9
20260507131605 60 346 0.0 1.7 0.00 0.00 0.00 58 1016.9
20260507131105 60 19 0.9 2.6 0.00 0.00 0.00 54 1016.9
20260507130604 61 79 0.9 2.6 0.00 0.00 0.00 54 1016.9
20260507130105 61 83 0.9 1.7 0.00 0.00 0.00 54 1016.9
20260507125605 61 67 0.0 2.6 0.00 0.00 0.00 54 1016.9
20260507125105 61 88 0.9 2.6 0.00 0.00 0.00 55 1016.9
20260507124605 61 107 0.9 4.3 0.00 0.00 0.00 54 1016.9
20260507124105 61 87 0.9 5.2 0.00 0.00 0.00 56 1017.0
20260507123604 60 73 0.0 2.6 0.00 0.00 0.00 58 1017.0
20260507123104 60 99 0.9 2.6 0.00 0.00 0.00 55 1017.0
20260507122605 61 98 0.0 5.2 0.00 0.00 0.00 56 1017.0
20260507122105 61 82 0.9 1.7 0.00 0.00 0.00 57 1017.0
20260507121605 60 262 0.0 1.7 0.00 0.00 0.00 58 1017.0
20260507121105 60 290 0.0 1.7 0.00 0.00 0.00 58 1017.1
20260507120605 59 42 0.0 1.7 0.00 0.00 0.00 60 1017.1
20260507115605 59 32 0.0 2.6 0.00 0.00 0.00 64 1017.2
20260507115105 58 12 0.0 2.6 0.00 0.00 0.00 66 1017.2
20260507114605 58 73 0.0 2.6 0.00 0.00 0.00 69 1017.2
20260507114105 57 2 0.0 2.6 0.00 0.00 0.00 69 1017.4
20260507113605 56 90 0.0 1.7 0.00 0.00 0.00 69 1017.5
20260507112106 55 94 0.9 1.7 0.00 0.00 0.00 70 1017.6
20260507111606 55 92 0.0 2.6 0.00 0.00 0.00 71 1017.7
20260507110605 55 22 0.0 1.7 0.00 0.00 0.00 71 1017.8
20260507110105 54 347 0.0 1.7 0.00 0.00 0.00 74 1017.8
20260507105605 54 61 0.9 2.6 0.00 0.00 0.00 74 1017.9
20260507105105 54 56 0.0 2.6 0.00 0.00 0.00 75 1017.9
20260507104605 53 85 0.0 1.7 0.00 0.00 0.00 75 1017.9
20260507104109 53 77 0.9 2.6 0.00 0.00 0.00 74 1018.0
20260507103605 53 94 0.0 0.9 0.00 0.00 0.00 75 1017.9
20260507103105 53 92 0.0 2.6 0.00 0.00 0.00 75 1018.0
20260507102605 52 87 0.0 2.6 0.00 0.00 0.00 76 1018.0
20260507101605 52 319 0.0 0.9 0.00 0.00 0.00 78 1018.0
20260507101105 52 88 0.0 1.7 0.00 0.00 0.00 77 1018.0
20260507100605 52 353 0.0 1.7 0.00 0.00 0.00 78 1018.0
20260507095605 51 27 0.0 1.7 0.00 0.00 0.00 78 1018.0
20260507095105 51 91 0.0 0.9 0.00 0.00 0.00 78 1018.0
20260507094605 51 85 0.0 1.7 0.00 0.00 0.00 78 1018.0
20260507093605 51 13 0.0 1.7 0.00 0.00 0.00 80 1017.8
20260507093105 50 354 0.0 0.9 0.00 0.00 0.00 80 1017.8
20260507092605 50 14 0.0 1.7 0.00 0.00 0.00 80 1017.9
20260507091605 50 16 0.0 2.6 0.00 0.00 0.00 81 1017.9
20260507091105 50 80 0.0 0.9 0.00 0.00 0.00 81 1017.9
20260507090605 50 287 0.0 0.9 0.00 0.00 0.00 82 1017.9
20260507085605 49 353 0.0 0.9 0.00 0.00 0.00 82 1017.9
20260507084605 49 76 0.0 1.7 0.00 0.00 0.00 83 1017.9
20260507084105 49 26 0.0 1.7 0.00 0.00 0.00 83 1017.9
20260507083605 49 334 0.0 1.7 0.00 0.00 0.00 83 1017.9
20260507083105 48 68 0.0 0.9 0.00 0.00 0.00 83 1017.9
20260507082605 48 97 0.0 0.9 0.00 0.00 0.00 84 1017.8
20260507082105 48 19 0.0 0.9 0.00 0.00 0.00 84 1017.9
20260507081606 48 12 0.0 1.7 0.00 0.00 0.00 85 1017.7
20260507081105 48 302 0.0 1.7 0.00 0.00 0.00 85 1017.7
20260507080105 47 347 0.0 1.7 0.00 0.00 0.00 85 1017.7
20260507075605 47 293 0.0 0.9 0.00 0.00 0.00 86 1017.7
20260507075105 47 42 0.0 0.0 0.00 0.00 0.00 86 1017.7
20260507074605 47 72 0.0 0.9 0.00 0.00 0.00 87 1017.7
20260507074105 47 31 0.0 0.9 0.00 0.00 0.00 87 1017.8
20260507073605 46 90 0.0 0.9 0.00 0.00 0.00 87 1017.8
20260507073105 46 104 0.0 0.9 0.00 0.00 0.00 87 1017.8
20260507072605 46 83 0.0 0.9 0.00 0.00 0.00 87 1017.8
20260507071605 46 349 0.0 0.9 0.00 0.00 0.00 88 1017.7
20260507071105 46 60 0.0 1.7 0.00 0.00 0.00 88 1017.7
20260507070605 45 89 0.0 1.7 0.00 0.00 0.00 88 1017.7
20260507070106 45 321 0.0 2.6 0.00 0.00 0.00 89 1017.7
20260507065604 45 114 0.0 0.9 0.00 0.00 0.00 89 1017.7